Weather past 2 weeks in Bantam, Cocos Islands

Now
84 °F

Scattered showers. Passing clouds.


Feels Like: 92 °F
Forecast: 79 / 83 °F
Wind: 7 mph from East

Location: Cocos Island Airport

Current Time: Mar 4, 2015 at 9:40:57 AM

Latest Report: Mar 4, 2015 at 8:30 AM


Visibility: N/A

Pressure: 29.83 "Hg

Humidity: 74%

Dew point: 75 °F

Location of BantamLocation

Historic Weather in Bantam — Graph

°F

Bantam temperature yesterday

Maximum temperature yesterday: 86 °F (at 12:30 PM)
Minimum temperature yesterday: 77 °F (at 12:30 AM)
Average temperature yesterday: 81 °F

Past Weeks' High & Low Weather Summary

 TemperatureHumidityPressure
High88 °F (Feb 22, 11:30 AM)94% (Feb 20, 10:30 AM)29.92 "Hg (Feb 20, 10:30 AM)
Low75 °F (Feb 20, 1:30 PM)58% (Mar 2, 2:30 PM)29.71 "Hg (Feb 17, 3:00 PM)
Average82 °F75%29.82 "Hg
* Reported Feb 17 7:30 AM — Mar 4 8:00 AM, Bantam, Weather by CustomWeather, © 2015

Note: Actual official high and low records may vary slightly from our data, if they occured in-between our weather recording intervals... More about our weather records

Advertising

Bantam weather history for previous 24 hours

 ConditionsComfort  
Time TempWeatherWind HumidityBarometerVisibility
8:00 AM
Wed, Mar 4
82 °FPassing clouds.9 mph79%29.83 "HgN/A
7:30 AM82 °FScattered clouds.9 mph79%29.83 "HgN/A
7:00 AM81 °FPassing clouds.9 mph84%29.80 "HgN/A
6:30 AM81 °FPassing clouds.7 mph79%29.80 "HgN/A
6:00 AM81 °FPassing clouds.12 mph79%29.80 "HgN/A
5:30 AM79 °FPassing clouds.13 mph84%29.80 "HgN/A
5:00 AM79 °FClear.9 mph84%29.77 "HgN/A
4:30 AM79 °FClear.9 mph84%29.77 "HgN/A
4:00 AM81 °FPassing clouds.9 mph79%29.77 "HgN/A
3:30 AM79 °FOvercast.12 mph84%29.77 "HgN/A
2:30 AM77 °FMostly cloudy.13 mph89%29.77 "HgN/A
1:30 AM79 °FPassing clouds.6 mph79%29.80 "HgN/A
1:00 AM79 °FSprinkles. Mostly cloudy.9 mph84%29.80 "HgN/A
12:30 AM77 °FDrizzle. Overcast.13 mph89%29.83 "HgN/A
12:00 AM81 °FPassing clouds.8 mph74%29.83 "HgN/A
11:30 PM
Tue, Mar 3
81 °FPassing clouds.8 mph79%29.83 "HgN/A
11:00 PM82 °FClear.9 mph70%29.83 "HgN/A
10:30 PM82 °FPassing clouds.8 mph70%29.83 "HgN/A
10:00 PM82 °FPassing clouds.9 mph74%29.83 "HgN/A
9:30 PM82 °FClear.8 mph74%29.83 "HgN/A
8:30 PM82 °FClear.8 mph70%29.83 "HgN/A
7:30 PM82 °FPassing clouds.10 mph74%29.80 "HgN/A
7:00 PM82 °FScattered clouds.10 mph74%29.80 "HgN/A
6:30 PM82 °FSunny.10 mph74%29.77 "HgN/A
6:00 PM82 °FSunny.10 mph66%29.77 "HgN/A
5:30 PM82 °FPartly sunny.9 mph70%29.77 "HgN/A
5:00 PM82 °FSunny.9 mph74%29.77 "HgN/A
4:30 PM84 °FPassing clouds.9 mph66%29.74 "HgN/A
4:00 PM84 °FScattered clouds.9 mph70%29.74 "HgN/A
3:30 PM84 °FScattered clouds.8 mph66%29.77 "HgN/A
3:00 PM84 °FPassing clouds.8 mph66%29.77 "HgN/A
2:30 PM84 °FPassing clouds.8 mph70%29.77 "HgN/A
2:00 PM84 °FPassing clouds.8 mph62%29.77 "HgN/A
1:30 PM84 °FPassing clouds.8 mph66%29.77 "HgN/A
1:00 PM84 °FSunny.8 mph70%29.80 "HgN/A
12:30 PM86 °FPassing clouds.8 mph66%29.80 "HgN/A
12:00 PM84 °FPassing clouds.8 mph66%29.83 "HgN/A
11:30 AM84 °FPassing clouds.8 mph70%29.83 "HgN/A
11:00 AM84 °FPassing clouds.8 mph66%29.83 "HgN/A
10:30 AM84 °FPassing clouds.8 mph70%29.83 "HgN/A
10:00 AM84 °FPassing clouds.9 mph70%29.83 "HgN/A
9:00 AM82 °FPassing clouds.9 mph70%29.86 "HgN/A
Weather by CustomWeather, © 2015

See weather overviewHow to use our weather pages